Вернуться в каталог

NOAA 16 DEB

АктивенPO
NORAD 42402·DEBRIS·🇺🇸 United States

Запущен Sep 21, 2000 с Vandenberg Space Force Base

Loading…

Ближайшие Пролёты (ближайшие 24 часа)

TLE

СвежийSource: Space-Track

Эпоха: Sep 14, 2026, 09:57 UTC

1 42402U 00055SW  26257.41519551  .00002626  00000-0  75468-3 0  9994
2 42402  99.0192 125.5935 0026881 224.4029 135.5006 14.45554425549256

Отслеживайте NOAA 16 DEB в реальном времени с AllMySat

Download on the App Store